Theta_e
300 300 301 301 301 300 300 300 300 300 300 299 299 298 297 296 297 298 301 300 300 297 297 300 300 299 298 297 297 297 296 298 299 300 303 304 303 303 302 300 302 302 300 300 302 306 309 300 299 299 298 297 297 297
300 300 300 300 301 300 300 300 299 298 298 299 299 298 297 297 297 297 300 300 299 299 297 298 297 297 299 299 297 297 297 298 298 297 297 297 296 295 298 297 298 299 299 301 300 300 298 297 298 297 297 297 297 297
299 300 300 301 301 300 300 300 300 299 298 298 298 298 297 298 298 297 299 299 298 297 295 296 298 299 300 300 299 297 296 297 298 298 297 296 295 297 295 296 297 296 296 296 297 297 296 297 297 296 298 297 297 297
299 300 300 299 300 300 300 300 299 300 300 299 298 298 298 297 298 298 297 300 298 298 292 294 297 297 296 298 299 299 299 299 298 296 296 290 295 295 296 296 297 296 296 297 296 296 296 297 297 296 297 298 297 297
298 299 299 299 299 299 297 298 298 298 300 300 298 299 298 298 297 298 298 298 299 298 291 294 296 296 298 297 297 298 299 297 295 295 298 296 295 296 295 296 296 295 296 295 297 298 298 296 296 297 297 296 296 295
297 297 297 298 298 299 299 299 299 299 299 298 298 298 297 298 297 297 297 300 299 299 296 290 294 296 296 298 298 297 298 296 297 298 299 297 296 297 295 294 295 295 295 296 296 296 295 295 297 296 295 294 294 293
297 297 297 297 298 298 298 298 298 297 297 298 298 297 298 297 297 298 295 298 298 297 294 293 290 294 298 298 297 297 298 298 298 300 298 295 295 297 299 296 296 296 297 296 296 296 297 296 295 294 293 293 292 291
296 297 298 298 297 298 298 298 297 298 298 298 297 297 297 297 297 297 296 298 297 297 296 295 292 293 297 295 296 297 298 298 298 298 295 295 295 295 297 296 296 296 296 296 297 296 295 294 293 292 292 292 290 289
296 296 297 298 298 298 298 298 297 297 297 297 297 297 297 297 297 297 297 297 297 296 294 294 293 290 295 295 294 296 297 297 295 297 295 295 295 298 297 296 296 296 296 297 296 294 293 293 292 291 290 290 289 289
296 295 295 295 297 297 297 297 298 297 297 297 297 297 292 297 297 297 296 296 297 296 295 296 293 292 295 292 290 294 295 295 291 293 295 298 296 297 296 296 296 295 295 295 295 294 293 292 291 290 290 289 289 288
296 296 296 296 297 297 297 297 297 297 296 296 296 294 295 296 297 295 296 296 295 294 294 296 293 294 292 293 293 293 291 295 297 293 294 288 294 296 295 295 296 296 295 293 293 293 292 291 290 290 289 289 288 288
295 295 295 296 296 297 297 296 296 297 296 296 295 295 295 295 295 296 294 289 292 291 290 293 293 292 292 293 294 291 296 294 293 293 295 291 295 295 296 296 295 294 294 293 293 292 291 291 290 289 289 289 288 287
294 294 294 295 296 296 297 296 295 296 296 295 295 294 295 295 296 295 287 293 286 293 293 293 293 292 292 292 295 293 296 296 293 292 293 296 295 297 296 296 294 294 294 293 292 292 291 290 289 289 288 288 287 287
293 292 294 295 296 296 296 296 296 296 296 294 295 295 294 291 292 288 289 290 292 292 292 293 291 296 295 293 287 296 293 292 293 288 296 293 293 295 296 295 294 294 293 292 292 291 290 289 289 288 288 288 286 285
293 293 294 295 295 295 295 296 296 296 295 295 295 296 294 290 286 289 291 292 293 293 295 293 295 294 295 294 291 291 293 296 294 295 296 293 295 295 295 292 292 292 291 291 291 291 289 289 288 288 287 286 285 284
293 294 294 294 294 295 296 296 296 295 292 293 294 294 291 291 288 287 289 293 293 295 294 294 291 292 293 288 292 295 288 292 293 294 293 294 295 294 292 292 292 292 292 291 291 290 289 289 288 286 286 285 284 284
293 294 294 294 295 295 296 296 295 292 294 294 295 291 287 288 291 292 293 293 295 295 290 292 295 295 288 285 289 293 294 293 293 292 291 292 293 293 291 292 292 292 291 291 291 289 289 288 286 285 284 284 283 283
294 295 295 295 296 296 295 296 293 292 293 294 294 294 293 293 293 293 292 292 293 291 292 291 293 294 293 293 291 292 292 292 292 291 290 291 293 294 293 291 292 292 291 291 290 289 288 287 285 284 283 283 283 283
294 294 295 296 295 295 293 293 293 293 293 293 293 286 289 287 290 292 292 293 295 294 295 296 296 295 292 291 292 292 290 289 289 288 288 294 295 294 294 293 293 292 291 290 289 288 287 286 285 284 283 282 282 282
295 295 295 295 294 293 291 292 292 292 292 289 286 288 288 288 289 288 290 291 294 295 296 295 292 291 289 289 290 289 288 287 287 287 286 287 294 293 292 292 292 291 289 288 287 287 285 285 284 283 282 282 282 281
296 296 295 295 293 293 289 291 291 291 293 289 290 292 289 290 291 292 294 293 294 294 288 289 293 293 292 292 293 294 294 293 291 292 293 288 293 294 293 291 291 289 288 286 285 285 286 284 284 283 282 282 281 281
296 296 294 292 291 291 292 291 287 287 287 288 289 292 293 293 292 291 292 293 294 293 287 288 292 292 291 285 292 294 294 294 293 292 292 292 292 291 288 288 287 286 285 285 285 284 284 284 283 282 282 281 281 281
295 295 293 292 292 291 292 291 291 291 293 291 291 292 293 293 293 290 292 292 288 286 292 292 292 292 291 292 292 291 291 290 290 290 290 290 290 289 288 287 286 285 284 284 284 283 283 282 282 282 281 280 280 280
294 294 293 292 293 291 290 292 291 291 291 291 292 292 289 290 292 293 294 289 288 284 284 284 288 284 287 288 284 287 288 288 289 289 289 288 287 286 286 286 285 285 285 284 284 282 281 281 281 281 280 280 279 279
293 293 293 294 289 289 291 290 292 292 290 291 292 292 290 293 294 293 292 291 286 285 286 288 289 289 288 285 287 288 288 288 288 287 287 287 286 285 283 284 283 283 283 282 281 281 281 280 280 279 279 279 279 279
295 289 291 287 284 286 287 291 292 290 291 292 292 286 292 292 293 292 292 289 289 289 289 287 285 282 283 288 287 287 286 287 287 286 286 286 285 284 282 281 280 281 281 281 281 281 280 280 280 279 279 278 279 279
294 291 285 278 284 286 289 290 289 289 292 288 286 292 292 292 289 290 285 285 287 286 286 286 286 285 284 287 287 287 287 286 286 286 286 285 284 284 283 282 281 283 283 282 281 280 280 280 279 279 278 278 277 277
284 282 288 285 285 288 288 285 285 286 286 286 289 292 291 291 291 287 285 285 285 284 284 284 285 286 286 287 287 286 285 284 283 284 283 283 283 283 283 283 283 283 282 281 280 279 279 279 278 278 278 277 277 277
283 282 285 283 283 285 286 287 287 287 286 287 289 288 288 287 284 283 284 284 284 283 282 282 282 283 284 285 285 284 284 283 282 279 280 281 280 282 282 281 281 281 281 281 281 280 279 279 278 277 277 277 276 276
282 283 283 283 285 286 285 285 284 280 277 281 281 282 282 281 283 284 284 283 282 281 282 282 282 283 283 283 283 283 282 282 282 282 280 281 282 283 283 281 281 280 280 280 280 280 280 279 278 277 276 276 276 275
282 285 285 283 282 280 278 277 280 278 276 277 278 281 282 280 282 283 282 283 283 282 282 282 282 283 283 282 282 282 282 281 282 282 283 283 282 282 281 281 280 280 279 278 277 277 277 277 277 277 276 275 275 275
285 287 286 282 278 276 277 279 278 279 278 278 277 277 278 278 278 279 281 281 281 281 282 282 282 282 282 283 283 282 283 283 282 282 282 282 282 282 281 280 280 278 277 277 276 276 276 276 275 275 275 275 275 274
278 280 280 278 276 277 279 278 277 276 276 276 276 277 277 280 281 279 279 280 281 281 281 281 282 282 282 282 283 283 282 282 282 282 282 281 281 280 279 278 278 277 277 276 276 275 275 275 275 274 274 274 274 274
Wind_Speed
8 8 8 7 7 5 3 3 3 2 2 1 3 5 7 8 9 9 5 9 4 1 5 2 3 1 2 2 2 4 4 4 3 3 2 3 3 2 3 4 3 3 2 3 3 2 5 11 5 6 6 5 6 3
11 11 10 9 8 6 4 4 4 3 3 3 3 4 5 6 6 6 3 5 5 1 5 13 18 16 12 5 3 2 3 2 3 2 2 2 2 3 1 2 4 2 2 2 5 4 10 3 2 6 4 4 4 5
10 10 10 9 8 7 6 5 4 3 3 3 2 3 4 4 5 4 3 6 4 3 6 2 4 6 7 10 11 3 3 4 2 1 1 2 2 2 1 4 2 5 4 2 5 4 7 11 13 3 1 4 6 5
11 10 10 10 8 8 8 8 7 7 6 5 5 4 5 5 5 6 4 2 2 2 1 5 7 10 17 11 16 21 15 9 2 3 2 2 2 3 3 4 2 5 4 5 6 9 6 7 4 7 9 6 7 9
11 10 9 9 9 8 7 7 6 8 8 9 7 6 7 6 6 7 9 11 8 1 2 5 22 10 5 4 18 18 20 4 1 1 1 3 3 2 3 1 6 5 6 4 6 8 5 7 6 5 6 7 11 14
12 11 11 11 10 9 9 9 9 9 10 10 10 10 8 6 4 3 4 4 8 7 2 3 6 6 13 9 7 10 12 4 3 3 2 3 4 1 2 4 5 9 4 6 5 6 7 8 1 10 6 9 15 14
13 11 9 9 11 11 11 12 12 12 12 10 9 9 6 6 7 3 3 2 4 8 2 4 4 6 4 1 1 2 1 1 2 2 3 3 3 3 2 8 3 7 13 11 12 5 1 5 4 7 10 13 15 14
13 11 11 11 12 13 12 10 9 7 8 8 6 4 4 5 6 8 17 14 9 3 1 3 4 4 3 1 0 1 2 1 1 3 1 3 1 3 6 7 4 10 10 6 3 3 2 2 6 7 12 12 8 9
15 12 11 12 12 13 12 10 7 5 4 4 4 5 4 4 4 3 3 6 13 3 2 3 3 3 1 1 1 1 2 2 3 3 3 3 3 6 9 8 7 10 5 5 2 5 6 5 6 5 5 5 7 9
15 12 10 11 11 12 12 12 9 7 5 5 7 4 1 3 4 3 2 2 3 4 2 4 3 4 2 0 2 1 1 2 1 4 1 3 5 14 12 13 8 6 6 4 2 4 3 3 3 4 5 6 7 9
14 12 12 13 12 11 11 12 12 10 8 6 4 3 2 4 4 1 2 3 2 3 3 3 6 5 2 3 3 2 2 2 2 4 4 3 4 5 7 4 5 10 9 6 5 2 1 2 2 3 3 6 8 11
14 14 14 15 15 15 15 15 16 13 8 10 10 7 5 3 2 4 3 2 3 4 3 4 4 5 3 2 2 2 2 0 5 1 2 3 4 5 6 6 5 9 8 6 3 1 1 2 4 3 4 4 7 9
15 16 18 19 18 18 19 19 18 14 14 14 4 3 3 3 5 6 7 4 2 4 4 3 1 3 1 2 0 1 3 4 2 1 4 4 4 1 6 5 6 7 7 5 2 1 1 2 1 3 4 3 6 8
18 19 20 19 19 19 20 21 18 18 7 3 4 6 6 5 6 6 5 5 5 4 4 4 2 3 2 1 2 3 4 1 2 2 5 4 6 5 5 4 5 4 5 4 2 2 3 2 1 4 4 4 5 7
21 21 20 21 20 19 19 19 18 16 8 4 4 6 9 5 3 4 5 2 3 4 4 3 2 3 2 3 4 1 2 5 5 4 4 3 3 5 6 5 5 5 5 3 3 4 5 4 3 6 5 1 4 3
19 17 21 22 21 19 17 15 11 11 7 5 5 4 3 4 3 1 2 4 3 3 3 2 3 2 5 4 4 7 4 7 4 4 3 2 3 5 6 6 8 8 9 6 6 8 7 4 6 7 5 2 4 2
18 15 15 14 13 13 13 13 9 5 4 4 3 2 3 1 4 4 5 4 9 4 3 3 6 7 0 2 4 5 5 3 3 3 3 3 5 7 8 10 9 9 8 9 9 10 8 7 7 5 3 2 4 1
19 12 12 9 11 19 9 5 4 2 4 3 2 4 4 3 2 3 4 4 4 4 4 5 3 5 6 7 5 3 4 4 5 5 4 4 6 8 13 13 11 8 7 10 11 10 9 10 8 5 3 2 2 0
22 20 14 18 17 7 5 4 5 3 6 3 2 2 3 3 5 4 4 9 11 4 3 3 5 5 5 3 4 4 4 4 4 4 3 7 9 12 14 12 10 8 9 12 11 11 9 9 7 5 4 2 1 1
16 18 17 20 15 4 4 3 4 3 4 4 1 2 3 2 1 2 3 3 4 2 5 5 7 7 4 4 5 4 3 3 3 1 3 4 13 14 15 15 13 11 11 10 9 8 7 6 8 7 5 4 5 4
15 19 17 23 8 5 5 4 3 3 2 2 2 3 3 2 2 2 2 3 5 3 3 5 9 10 13 16 16 16 12 11 5 5 5 2 3 5 9 10 9 10 10 8 9 11 10 9 7 6 5 6 6 5
8 20 8 7 3 3 2 8 3 3 2 2 0 2 2 2 3 4 2 4 4 7 4 5 9 8 6 4 11 17 18 13 10 8 5 6 3 2 3 8 9 9 11 11 11 9 8 7 6 6 6 6 6 7
16 9 5 3 2 3 2 8 3 4 3 2 2 2 2 2 2 4 3 4 4 6 14 11 14 17 13 11 8 8 10 8 5 6 7 6 5 7 8 12 13 12 10 10 9 8 7 6 6 7 6 6 6 6
9 7 5 5 4 4 4 4 2 3 2 1 2 3 3 4 3 3 4 3 3 3 3 5 7 2 2 3 2 5 9 7 6 7 9 8 5 6 8 9 10 10 9 6 9 8 7 7 6 6 6 6 5 5
5 5 4 4 3 4 5 4 4 3 4 4 3 3 3 2 3 3 4 3 1 1 2 4 4 3 3 2 3 7 11 10 7 4 8 8 7 7 7 8 8 8 8 8 8 8 8 8 7 7 6 6 5 5
6 6 8 6 2 5 5 5 6 7 4 5 6 3 2 2 4 6 3 3 2 2 3 3 3 2 2 5 2 5 8 9 7 7 9 12 12 12 9 5 5 8 10 9 9 9 9 9 8 7 7 7 7 7
5 5 2 0 3 3 2 1 3 3 7 7 3 5 4 5 6 4 1 2 2 4 5 6 9 8 4 6 7 6 8 10 9 8 7 11 8 9 9 11 11 11 9 10 9 9 8 8 8 8 7 7 7 8
4 5 8 5 2 2 4 3 6 6 5 3 4 7 5 7 5 3 3 5 7 6 6 6 6 6 4 5 8 12 9 9 9 8 7 7 9 9 9 8 6 6 7 7 7 6 6 7 7 7 7 8 8 7
2 3 4 4 2 3 5 7 5 4 3 4 5 4 4 3 2 3 5 8 8 8 8 7 7 8 6 7 9 11 12 14 13 4 4 3 3 8 11 10 9 8 8 8 6 5 5 6 6 6 7 7 8 8
3 3 3 4 7 8 5 5 3 1 0 2 1 2 2 2 4 8 9 10 13 13 15 13 11 13 10 10 8 11 12 15 17 10 4 4 6 4 8 9 9 8 8 8 8 8 6 7 6 6 6 7 7 7
3 3 3 3 4 2 2 1 2 2 1 1 0 2 2 3 5 10 16 18 15 12 12 13 15 14 12 13 12 11 9 17 17 14 10 6 6 6 6 7 7 7 7 8 8 8 8 8 8 8 8 8 8 8
2 4 4 4 3 2 2 2 2 1 1 0 2 1 2 2 3 2 1 9 13 12 14 15 14 13 17 14 15 16 10 9 17 18 14 11 8 7 7 7 7 7 7 7 7 7 7 7 7 7 7 8 9 10
2 2 2 2 1 1 1 3 1 2 2 1 3 3 3 3 5 1 3 5 6 7 11 13 12 12 11 13 12 13 9 6 7 9 9 9 8 7 7 6 6 6 6 6 6 6 6 6 6 6 7 8 9 10
Wind_Direction
239 255 250 231 213 229 259 281 293 298 302 339 350 3 10 19 20 31 41 15 26 47 286 331 3 8 343 109 156 278 8 352 352 26 345 338 350 357 346 320 7 10 354 335 356 297 246 356 5 41 272 285 312 333
255 247 239 205 214 228 249 264 271 288 341 221 285 326 348 359 5 16 40 343 348 225 250 294 287 264 256 226 146 280 207 348 248 49 23 12 336 335 209 262 315 276 137 229 191 242 316 2 320 254 255 278 296 297
241 233 220 210 224 231 238 246 259 258 256 241 268 303 320 322 332 345 321 336 340 341 306 344 263 330 248 237 230 158 274 200 40 132 193 222 248 162 239 255 262 315 326 282 1 295 298 302 305 3 275 286 298 297
229 225 224 220 224 240 245 241 249 252 247 260 265 285 308 317 292 292 298 337 340 299 74 282 323 304 291 259 223 217 223 273 331 92 154 188 185 190 234 240 206 229 325 255 270 281 301 296 306 311 330 353 344 352
221 214 215 229 236 246 244 242 253 252 248 257 254 267 283 289 296 282 279 266 253 168 228 286 310 299 7 300 236 230 222 188 155 36 169 234 236 218 251 276 250 186 221 185 262 257 236 262 284 310 354 357 5 3
220 227 235 240 233 234 248 255 258 257 254 256 261 271 273 264 268 299 333 26 218 217 91 317 289 291 302 303 237 220 196 181 144 146 218 244 256 166 246 247 234 226 239 191 248 231 242 262 246 27 28 18 3 355
222 229 236 238 230 239 251 255 256 259 256 254 261 267 254 232 220 203 182 44 138 168 86 294 297 281 278 330 44 85 191 128 138 179 231 221 226 213 245 255 223 287 278 276 284 291 35 25 19 41 31 7 357 347
225 232 240 246 249 243 249 253 243 254 256 247 247 239 220 222 244 257 247 245 168 128 71 257 268 320 202 238 203 3 96 46 205 219 257 212 265 179 248 254 235 246 255 270 171 67 99 62 40 42 19 355 347 346
232 233 237 245 246 244 237 222 224 231 231 210 184 175 165 195 210 259 278 243 196 176 202 209 233 263 329 218 122 41 139 233 220 221 229 151 218 226 238 243 214 249 241 184 60 40 39 25 5 14 357 335 353 349
227 235 238 240 242 241 229 221 213 211 186 157 152 150 285 193 151 154 73 99 200 217 225 232 188 253 117 19 314 130 187 235 257 239 160 219 248 253 254 248 229 216 156 121 79 346 355 356 353 339 324 347 357 346
223 228 239 241 242 242 238 230 221 213 170 161 148 184 169 153 165 108 221 202 183 255 226 219 206 234 281 167 207 198 212 231 253 265 158 260 266 246 259 239 146 133 134 110 115 120 108 137 306 301 332 359 359 356
223 233 242 247 248 249 245 240 227 208 182 180 147 132 160 172 196 207 209 247 194 232 216 193 214 186 249 116 110 280 221 219 250 234 224 273 257 274 137 136 137 133 125 113 109 123 152 302 303 337 351 0 5 355
230 245 253 250 247 244 240 240 235 215 171 145 144 142 166 184 212 204 204 210 202 210 210 190 169 146 37 50 201 138 228 232 1 287 231 237 261 97 160 151 148 138 127 129 135 178 275 300 341 350 332 352 4 358
250 254 249 249 242 240 240 235 228 201 160 165 168 184 193 190 225 203 189 185 218 185 178 149 149 141 168 116 196 221 229 147 244 255 235 256 252 222 191 186 147 159 144 153 192 227 257 274 287 306 313 340 4 5
250 247 251 249 248 245 240 234 224 190 176 188 190 208 209 213 226 210 203 200 218 170 136 93 58 117 194 219 192 170 263 230 219 226 225 237 247 162 182 186 175 164 170 186 238 252 252 258 278 282 295 279 351 353
248 257 250 247 248 239 235 236 206 182 188 190 207 227 231 157 244 274 202 214 188 144 92 91 139 183 231 188 166 210 175 220 231 223 234 207 217 200 193 187 186 183 181 207 229 240 232 235 254 272 264 259 347 335
231 239 248 251 236 225 215 181 166 185 234 195 201 184 226 245 192 204 190 198 170 135 180 157 186 204 124 214 221 202 213 194 228 248 231 223 214 209 209 195 193 193 208 222 229 213 231 244 244 260 231 308 338 111
220 229 249 217 173 153 152 152 148 174 237 227 202 203 166 216 225 223 214 171 143 180 165 211 155 190 205 205 224 227 229 238 242 244 256 263 241 224 207 209 198 202 229 235 220 224 227 240 227 223 249 305 334 97
227 240 224 194 176 156 140 169 170 233 227 222 220 255 202 230 228 222 194 199 193 157 136 170 222 220 217 213 198 216 229 209 225 236 221 222 226 222 217 208 212 226 234 216 212 216 234 228 243 234 246 263 257 174
235 229 212 200 190 141 134 165 189 215 228 223 177 215 197 205 233 198 187 170 178 199 210 214 222 227 202 216 208 223 217 200 162 258 272 256 230 229 232 229 220 228 215 214 217 226 240 238 218 218 241 233 237 236
257 223 206 174 160 187 154 163 189 215 214 203 216 177 226 156 194 221 215 172 211 220 235 221 239 246 232 249 252 252 239 201 201 204 242 239 210 231 245 229 218 201 193 200 213 226 224 224 230 244 248 234 257 251
144 162 141 178 133 130 153 190 163 170 142 227 118 214 233 210 198 220 191 201 236 230 216 225 239 242 243 241 239 233 243 226 225 224 231 248 246 207 196 195 184 195 204 213 218 218 221 228 241 229 249 262 256 263
147 129 132 131 118 160 214 157 151 179 202 232 187 218 225 233 210 124 234 235 248 226 236 244 252 253 246 248 208 202 204 202 222 238 237 225 200 200 205 208 212 199 206 214 223 223 222 228 229 238 249 251 251 264
132 153 176 184 162 181 143 180 176 140 169 201 208 248 233 223 155 220 246 239 236 256 214 207 160 106 91 163 199 199 206 196 224 201 185 181 180 209 213 208 206 211 219 223 205 214 221 228 228 238 243 251 255 261
148 199 180 174 122 135 176 154 167 175 222 177 211 236 252 181 218 236 236 254 252 244 221 180 194 203 196 199 198 185 189 186 191 182 196 208 208 191 194 194 199 210 213 210 211 215 219 220 226 234 241 247 256 275
211 206 179 171 185 145 185 169 190 194 184 191 217 230 158 202 231 242 238 205 205 212 204 201 192 192 258 219 158 163 194 210 216 201 209 199 205 191 192 188 197 230 225 227 224 219 221 223 232 238 248 255 262 269
203 186 213 335 144 134 164 156 128 170 196 197 214 173 191 223 239 248 248 226 217 220 205 199 204 196 223 212 224 231 195 194 211 211 198 194 196 208 213 215 219 241 226 216 224 227 229 230 234 240 249 258 262 268
196 162 169 189 178 189 165 173 178 201 206 210 137 191 208 206 233 227 203 180 194 193 202 204 208 211 207 204 197 167 169 182 166 158 165 189 208 221 228 223 220 207 212 221 220 219 229 236 238 240 247 256 263 265
175 188 118 154 156 191 203 190 210 212 200 159 175 206 228 229 217 185 196 196 195 193 189 194 199 199 193 191 201 201 198 198 167 152 188 211 210 233 219 216 214 218 222 214 212 232 236 242 246 253 258 263 271 275
233 163 112 167 168 205 221 187 212 236 18 179 143 341 308 274 244 220 206 192 192 203 215 213 198 183 179 180 180 200 216 221 216 205 185 206 216 226 201 207 214 220 224 227 227 225 223 229 240 252 265 273 278 284
138 138 119 158 220 240 206 157 61 65 58 338 304 186 250 296 294 245 230 229 226 219 208 210 202 206 200 194 201 207 221 219 215 220 221 191 176 191 209 213 214 219 231 236 234 234 235 241 252 262 272 277 284 288
140 190 155 183 255 280 20 122 167 188 240 156 273 186 334 1 272 271 285 214 210 212 220 217 206 213 220 224 224 223 249 244 213 212 217 219 221 223 220 219 218 220 222 227 234 240 244 252 261 266 273 281 289 295
39 59 74 96 73 341 237 98 50 320 337 260 261 200 213 204 244 293 16 209 214 229 235 234 238 234 224 209 203 199 207 192 181 195 205 211 210 208 211 210 207 208 213 222 233 243 252 266 279 286 291 296 301 305